| time (UTC) | temp F | wind direction | speed MPH | gust MPH | rain 1hr in | rain 24hr in | rain mn in | humidity % | barometer mb |
| 20260503223031 | 59 | 33 | 0.0 | 6.0 | 0.00 | 0.00 | 0.00 | 34 | 1012.6 |
| 20260503221537 | 59 | 315 | 1.0 | 11.0 | 0.00 | 0.00 | 0.00 | 33 | 1012.8 |
| 20260503220036 | 59 | 327 | 5.0 | 12.0 | 0.00 | 0.00 | 0.00 | 33 | 1012.7 |
| 20260503214534 | 59 | 0 | 1.0 | 11.0 | 0.00 | 0.00 | 0.00 | 26 | 1012.9 |
| 20260503213034 | 59 | 0 | 2.0 | 10.0 | 0.00 | 0.00 | 0.00 | 26 | 1012.7 |
| 20260503211535 | 59 | 0 | 1.0 | 14.0 | 0.00 | 0.00 | 0.00 | 34 | 1012.6 |
| 20260503210033 | 59 | 333 | 1.0 | 12.0 | 0.00 | 0.00 | 0.00 | 27 | 1012.7 |
| 20260503204535 | 59 | 329 | 3.0 | 11.0 | 0.00 | 0.00 | 0.00 | 26 | 1012.6 |
| 20260503203041 | 59 | 0 | 4.0 | 13.0 | 0.00 | 0.00 | 0.00 | 34 | 1012.9 |
| 20260503201533 | 59 | 0 | 2.0 | 9.0 | 0.00 | 0.00 | 0.00 | 28 | 1013.0 |
| 20260503200034 | 58 | 0 | 1.0 | 16.0 | 0.00 | 0.00 | 0.00 | 30 | 1013.1 |
| 20260503194535 | 58 | 332 | 2.0 | 13.0 | 0.00 | 0.00 | 0.00 | 34 | 1013.1 |
| 20260503193040 | 58 | 335 | 1.0 | 14.0 | 0.00 | 0.00 | 0.00 | 34 | 1013.1 |
| 20260503191539 | 58 | 279 | 2.0 | 15.0 | 0.00 | 0.00 | 0.00 | 27 | 1013.1 |
| 20260503190035 | 58 | 268 | 6.0 | 15.0 | 0.00 | 0.00 | 0.00 | 27 | 1013.3 |
| 20260503184532 | 58 | 0 | 5.0 | 15.0 | 0.00 | 0.00 | 0.00 | 27 | 1013.5 |
| 20260503183036 | 58 | 9 | 1.0 | 9.0 | 0.00 | 0.00 | 0.00 | 30 | 1013.8 |
| 20260503181536 | 57 | 324 | 1.0 | 12.0 | 0.00 | 0.00 | 0.00 | 31 | 1013.6 |
| 20260503180045 | 56 | 0 | 1.0 | 14.0 | 0.00 | 0.00 | 0.00 | 32 | 1013.6 |
| 20260503174535 | 55 | 311 | 3.0 | 12.0 | 0.00 | 0.00 | 0.00 | 31 | 1013.9 |
| 20260503173035 | 55 | 319 | 5.0 | 14.0 | 0.00 | 0.00 | 0.00 | 38 | 1014.1 |
| 20260503171531 | 55 | 283 | 5.0 | 15.0 | 0.00 | 0.00 | 0.00 | 32 | 1013.9 |
| 20260503081535 | 46 | 0 | 0.0 | 3.0 | 0.00 | 0.00 | 0.00 | 66 | 1011.7 |
| 20260503071536 | 47 | 323 | 0.0 | 5.0 | 0.00 | 0.00 | 0.00 | 62 | 1011.3 |
| 20260503060106 | 49 | 0 | 0.0 | 6.0 | 0.00 | 0.00 | 0.00 | 52 | 1011.6 |
| 20260503054538 | 50 | 0 | 1.0 | 9.0 | 0.00 | 0.00 | 0.00 | 57 | 1011.8 |
| 20260503053035 | 50 | 0 | 1.0 | 5.0 | 0.00 | 0.00 | 0.00 | 49 | 1011.9 |
| 20260503051536 | 50 | 318 | 0.0 | 4.0 | 0.00 | 0.00 | 0.00 | 54 | 1012.1 |
| 20260503050036 | 51 | 0 | 0.0 | 5.0 | 0.00 | 0.00 | 0.00 | 54 | 1012.3 |
| 20260503044536 | 51 | 324 | 0.0 | 9.0 | 0.00 | 0.00 | 0.00 | 53 | 1012.3 |
| 20260503043046 | 51 | 0 | 0.0 | 4.0 | 0.00 | 0.00 | 0.00 | 52 | 1012.3 |
| 20260503041614 | 51 | 0 | 0.0 | 3.0 | 0.00 | 0.00 | 0.00 | 44 | 1012.4 |
| 20260503040040 | 52 | 0 | 1.0 | 11.0 | 0.00 | 0.00 | 0.00 | 42 | 1012.4 |
| 20260503034533 | 52 | 0 | 0.0 | 2.0 | 0.00 | 0.00 | 0.00 | 42 | 1012.3 |
| 20260503033037 | 52 | 0 | 0.0 | 10.0 | 0.00 | 0.00 | 0.00 | 49 | 1012.3 |
| 20260503031536 | 52 | 309 | 2.0 | 11.0 | 0.00 | 0.00 | 0.00 | 48 | 1012.4 |
| 20260503030034 | 53 | 317 | 1.0 | 10.0 | 0.00 | 0.00 | 0.00 | 47 | 1012.3 |
| 20260503024536 | 53 | 0 | 2.0 | 8.0 | 0.00 | 0.00 | 0.00 | 45 | 1012.2 |
| 20260503023039 | 54 | 0 | 1.0 | 11.0 | 0.00 | 0.00 | 0.00 | 38 | 1012.5 |
| 20260503021548 | 54 | 345 | 2.0 | 8.0 | 0.00 | 0.00 | 0.00 | 44 | 1012.4 |
| 20260503020042 | 54 | 0 | 1.0 | 9.0 | 0.00 | 0.00 | 0.00 | 43 | 1012.4 |
| 20260503014535 | 55 | 328 | 1.0 | 11.0 | 0.00 | 0.00 | 0.00 | 43 | 1012.3 |
| 20260503013035 | 55 | 0 | 1.0 | 7.0 | 0.00 | 0.00 | 0.00 | 42 | 1012.0 |
| 20260503011537 | 55 | 0 | 1.0 | 9.0 | 0.00 | 0.00 | 0.00 | 42 | 1012.2 |
| 20260503010037 | 55 | 0 | 3.0 | 11.0 | 0.00 | 0.00 | 0.00 | 40 | 1012.3 |
| 20260503004541 | 56 | 320 | 4.0 | 11.0 | 0.00 | 0.00 | 0.00 | 40 | 1012.0 |
| 20260503003053 | 56 | 319 | 0.0 | 8.0 | 0.00 | 0.00 | 0.00 | 34 | 1011.6 |
| 20260503001542 | 56 | 315 | 0.0 | 9.0 | 0.00 | 0.00 | 0.00 | 33 | 1011.7 |
| 20260503000041 | 56 | 0 | 0.0 | 5.0 | 0.00 | 0.00 | 0.00 | 41 | 1011.5 |
| 20260502234538 | 56 | 320 | 1.0 | 11.0 | 0.00 | 0.00 | 0.00 | 39 | 1011.5 |
| 20260502233036 | 57 | 308 | 1.0 | 7.0 | 0.00 | 0.00 | 0.00 | 40 | 1011.2 |
| 20260502231536 | 58 | 319 | 1.0 | 8.0 | 0.00 | 0.00 | 0.00 | 31 | 1011.4 |
| 20260502230033 | 58 | 317 | 0.0 | 6.0 | 0.00 | 0.00 | 0.00 | 33 | 1011.4 |
| 20260502224536 | 58 | 0 | 1.0 | 5.0 | 0.00 | 0.00 | 0.00 | 33 | 1011.2 |